ONEWEB-0125 (47271 NORAD) Tracking and Keplerian Element Data
This shows tracking and keplerian element data for the satellite.
Feedback or suggestion? Click here.
Element | Value |
Catalog | 47271 |
Name | ONEWEB-0125 |
Epoch Orbit | 172 |
Epoch Day | 62.91667824 |
Epoch Year | 2021 |
RAAN | 15.5206 |
Inclination | 87.5795 |
Eccentricity | 0.0010434 |
Argument of Perigee | 19.5086 |
Mean Anonmoly | 74.1705 |
Mean Motion | 13.90357796 |
Decay Rate | -0.00986023 |
L1 | 1 47271U 20100P 21062.91667824 -.00986023 00000-0 -84141+0 0 9995 |
L2 | 2 47271 87.5795 15.5206 0010434 19.5086 74.1705 13.90357796 1728 |
Live tracking and technical data element details for ONEWEB-0125 (NORAD 47271). ONEWEB-0125 can be tracked NOW for your location showing map with azimuth and elevation plus other details from your city location.
Track the satellite on the map from your city or location and see movement details for azimuth, elevation, latitude, longitude, range, height, and movement on the map or in text.
IsCatalogInMostPopularTable: catalog: 47271, numindb: 28
Update: records affected: 1
GetName: 47271 ONEWEB-0125
Hit Count: updated at: Fri, 05 Mar 2021 07:43:40 GMT